Weather History for Redmond, OR

Change the Weather History Date:

Tuesday, February 19, 2013

  Actual Average Record
Temperature  
Mean Temperature 30 °F 36 °F  
Max Temperature 44 °F 48 °F 69 °F (1995)
Min Temperature 16 °F 24 °F -5 °F (2006)
Degree Days  
Heating Degree Days 35 29  
Month to date heating degree days 559 576  
Since 1 July heating degree days 4204 4416  
Cooling Degree Days 0 0  
Month to date cooling degree days 0 0  
Year to date cooling degree days 0 0  
Moisture  
Dew Point 19 °F    
Average Humidity 68    
Maximum Humidity 92    
Minimum Humidity 43    
Precipitation  
Precipitation 0.00 in 0.02 in 0.21 in (1993)
Month to date precipitation T 0.45  
Year to date precipitation 0.41 1.42  
Sea Level Pressure  
Sea Level Pressure 29.77 in    
Wind  
Wind Speed 4 mph (NNE)    
Max Wind Speed 16 mph    
Max Gust Speed 22 mph    
Visibility 10 miles    
Events      
T = Trace of Precipitation, MM = Missing Value Source: NWS Daily Summary

Daily Weather History Graph

Daily Weather History Graph

Search for Another Location

Airport:

Trip Planner

Search our weather history database for the weather conditions in past years. The results will help you decide how hot, cold, wet, or windy it might be!

Date:

Astronomy

Feb. 19, 2013 Rise Set
Actual Time 6:57 AM PST 5:39 PM PST
Civil Twilight 6:28 AM PST 6:09 PM PST
Nautical Twilight 5:54 AM PST 6:43 PM PST
Astronomical Twilight 5:20 AM PST 7:16 PM PST
Moon 12:08 PM PST (2/19) 2:40 AM PST (2/19)
Length of Visible Light 11h 41m
Length of Day
10h 42m
Waxing Gibbous, 68% of the Moon is Illuminated
Feb 19
Waxing Gibbous
Feb 25
Full
Mar 4
Last Quarter
Mar 11
New
Mar 19
First Quarter

Hourly Weather History & Observations

Time (PST) Temp. Windchill Dew Point Humidity Pressure Visibility Wind Dir Wind Speed Gust Speed Precip Events Conditions
12:56 AM 19.0 °F 11.1 °F 15.1 °F 85% 29.73 in 10.0 mi South 5.8 mph - N/A   Clear
2:56 AM 18.0 °F 12.7 °F 15.1 °F 88% 29.70 in 10.0 mi East 3.5 mph - N/A   Scattered Clouds
3:56 AM 19.0 °F 10.0 °F 15.1 °F 85% 29.70 in 10.0 mi SSE 6.9 mph - N/A   Overcast
4:56 AM 23.0 °F 13.9 °F 18.0 °F 81% 29.68 in 10.0 mi ESE 8.1 mph - N/A   Overcast
5:56 AM 19.0 °F - 15.1 °F 85% 29.70 in 10.0 mi Calm Calm - N/A   Scattered Clouds
6:56 AM 19.0 °F - 14.0 °F 81% 29.71 in 10.0 mi Calm Calm - N/A   Mostly Cloudy
7:56 AM 23.0 °F - 19.0 °F 85% 29.72 in 10.0 mi Calm Calm - N/A   Mostly Cloudy
8:56 AM 28.0 °F - 21.0 °F 75% 29.73 in 10.0 mi Calm Calm - N/A   Partly Cloudy
9:56 AM 33.1 °F 30.0 °F 21.0 °F 61% 29.73 in 10.0 mi West 3.5 mph - N/A   Partly Cloudy
10:56 AM 35.1 °F 32.2 °F 21.0 °F 57% 29.73 in 10.0 mi Variable 3.5 mph - N/A   Clear
11:56 AM 39.0 °F 34.8 °F 21.9 °F 50% 29.72 in 10.0 mi North 5.8 mph - N/A   Clear
12:56 PM 42.1 °F 36.6 °F 23.0 °F 47% 29.72 in 10.0 mi North 9.2 mph - N/A   Clear
1:56 PM 43.0 °F 37.2 °F 21.9 °F 43% 29.72 in 10.0 mi North 10.4 mph - N/A   Scattered Clouds
2:56 PM 42.1 °F 36.1 °F 21.0 °F 43% 29.74 in 10.0 mi NNW 10.4 mph - N/A   Clear
4:56 PM 39.0 °F 33.4 °F 24.1 °F 55% 29.77 in 10.0 mi NE 8.1 mph - N/A   Mostly Cloudy
5:56 PM 36.0 °F 32.1 °F 23.0 °F 59% 29.82 in 10.0 mi North 4.6 mph - N/A   Partly Cloudy
6:56 PM 30.9 °F 27.5 °F 21.9 °F 69% 29.87 in 10.0 mi NNE 3.5 mph - N/A   Scattered Clouds
7:56 PM 32.0 °F 28.7 °F 21.9 °F 66% 29.87 in 10.0 mi NNE 3.5 mph - N/A   Overcast
8:56 PM 24.1 °F - 19.0 °F 81% 29.90 in 10.0 mi Calm Calm - N/A   Clear
9:56 PM 28.0 °F 21.7 °F 21.0 °F 75% 29.91 in 10.0 mi WNW 5.8 mph - N/A   Clear
10:56 PM 21.9 °F - 18.0 °F 85% 29.93 in 10.0 mi Calm Calm - N/A   Clear
11:56 PM 19.0 °F - 16.0 °F 88% 29.95 in 10.0 mi Calm Calm - N/A   Clear